OPT71 MWCR-MKJS

Flight info

Callsign OPT71
Flight time 0h 34m
Altitude 31000
Route NALRO2 NALRO UG633 FROST G633 PETSI OMAXI7
Aircraft C750/M-SBDE3FGHRWXY/S

Departure

Time 2026-05-04 20:17
Airport Owen Roberts International Airport (MWCR)

Arrival

Time 2026-05-04 20:51
Airport Sangster International Airport (MKJS)
Time Latitude Longitude Altitude Speed Heading
2026-05-04 20:13 19.29031 -81.36818 13 ft 4 kts 76°
2026-05-04 20:13 19.29032 -81.36816 13 ft 0 kts 76°
2026-05-04 20:16 19.29032 -81.36814 13 ft 3 kts 76°
2026-05-04 20:16 19.29139 -81.36382 14 ft 120 kts 75°
2026-05-04 20:16 19.29366 -81.35361 383 ft 151 kts 78°
2026-05-04 20:17 19.29600 -81.34188 902 ft 175 kts 76°
2026-05-04 20:17 19.29915 -81.32847 1386 ft 201 kts 75°
2026-05-04 20:17 19.30261 -81.31338 1902 ft 219 kts 77°
2026-05-04 20:17 19.30119 -81.29636 2289 ft 251 kts 105°
2026-05-04 20:18 19.29488 -81.27847 3113 ft 260 kts 109°
2026-05-04 20:18 19.28969 -81.26032 4349 ft 259 kts 103°
2026-05-04 20:18 19.28591 -81.24173 5420 ft 265 kts 101°
2026-05-04 20:18 19.28172 -81.22218 6521 ft 271 kts 104°
2026-05-04 20:19 19.27718 -81.20290 7500 ft 277 kts 104°
2026-05-04 20:19 19.27257 -81.18295 8561 ft 281 kts 104°
2026-05-04 20:19 19.26793 -81.16255 9549 ft 290 kts 103°
2026-05-04 20:19 19.26313 -81.14156 10444 ft 300 kts 104°
2026-05-04 20:20 19.25809 -81.11925 10725 ft 326 kts 103°
2026-05-04 20:20 19.25255 -81.09512 10896 ft 353 kts 104°
2026-05-04 20:20 19.24636 -81.06913 10932 ft 376 kts 104°
2026-05-04 20:20 19.24003 -81.04146 10996 ft 396 kts 103°
2026-05-04 20:21 19.23369 -81.01295 11733 ft 397 kts 103°
2026-05-04 20:21 19.22717 -80.98441 12385 ft 402 kts 104°
2026-05-04 20:21 19.21364 -80.92632 13555 ft 411 kts 104°
2026-05-04 20:22 19.20705 -80.89753 14560 ft 397 kts 104°
2026-05-04 20:22 19.20062 -80.86950 15607 ft 387 kts 104°
2026-05-04 20:22 19.19423 -80.84193 16185 ft 393 kts 104°
2026-05-04 20:22 19.18768 -80.81370 16885 ft 398 kts 104°
2026-05-04 20:23 19.18106 -80.78508 17594 ft 403 kts 104°
2026-05-04 20:23 19.17433 -80.75608 18338 ft 407 kts 103°
2026-05-04 20:23 19.16771 -80.72684 18926 ft 409 kts 104°
2026-05-04 20:23 19.16078 -80.69735 19455 ft 417 kts 104°
2026-05-04 20:24 19.15372 -80.66741 20208 ft 420 kts 104°
2026-05-04 20:24 19.14676 -80.63716 20901 ft 426 kts 103°
2026-05-04 20:24 19.13975 -80.60658 21555 ft 431 kts 103°
2026-05-04 20:24 19.13255 -80.57565 22198 ft 436 kts 103°
2026-05-04 20:25 19.12522 -80.54437 22864 ft 440 kts 103°
2026-05-04 20:25 19.11784 -80.51278 23501 ft 445 kts 103°
2026-05-04 20:25 19.11040 -80.48073 24133 ft 451 kts 103°
2026-05-04 20:25 19.10286 -80.44833 24744 ft 455 kts 103°
2026-05-04 20:26 19.09527 -80.41568 25268 ft 460 kts 103°
2026-05-04 20:26 19.08771 -80.38329 25682 ft 462 kts 104°
2026-05-04 20:26 19.07979 -80.34959 26180 ft 469 kts 104°
2026-05-04 20:26 19.07199 -80.31635 26752 ft 473 kts 104°
2026-05-04 20:27 19.06405 -80.28239 27290 ft 479 kts 104°
2026-05-04 20:27 19.05603 -80.24808 27863 ft 483 kts 104°
2026-05-04 20:27 19.04790 -80.21350 28387 ft 487 kts 104°
2026-05-04 20:27 19.03967 -80.17854 28887 ft 492 kts 105°
2026-05-04 20:28 19.03140 -80.14333 29373 ft 497 kts 105°
2026-05-04 20:28 19.02302 -80.10763 29833 ft 501 kts 105°
2026-05-04 20:28 19.01456 -80.07171 30288 ft 506 kts 105°
2026-05-04 20:28 19.00602 -80.03550 30727 ft 509 kts 105°
2026-05-04 20:29 18.99740 -79.99897 31017 ft 515 kts 105°
2026-05-04 20:29 18.98862 -79.96183 31014 ft 529 kts 105°
2026-05-04 20:29 18.97960 -79.92369 31016 ft 541 kts 105°
2026-05-04 20:29 18.97040 -79.88481 31016 ft 551 kts 105°
2026-05-04 20:30 18.95155 -79.80518 31020 ft 565 kts 105°
2026-05-04 20:30 18.93227 -79.72401 31016 ft 572 kts 105°
2026-05-04 20:31 18.91283 -79.64232 31015 ft 575 kts 105°
2026-05-04 20:31 18.89332 -79.56046 31017 ft 574 kts 105°
2026-05-04 20:32 18.87394 -79.47937 31013 ft 572 kts 105°
2026-05-04 20:32 18.85447 -79.39807 31009 ft 570 kts 105°
2026-05-04 20:33 18.84498 -79.35836 30414 ft 543 kts 105°
2026-05-04 20:33 18.83587 -79.32029 28447 ft 531 kts 105°
2026-05-04 20:33 18.82659 -79.28194 26225 ft 541 kts 105°
2026-05-04 20:33 18.81755 -79.24448 25760 ft 507 kts 104°
2026-05-04 20:34 18.80925 -79.20979 25623 ft 472 kts 104°
2026-05-04 20:34 18.80129 -79.17664 25004 ft 459 kts 104°
2026-05-04 20:34 18.79346 -79.14432 24401 ft 451 kts 104°
2026-05-04 20:34 18.78583 -79.11281 23804 ft 447 kts 104°
2026-05-04 20:35 18.77822 -79.08117 23215 ft 444 kts 103°
2026-05-04 20:35 18.77064 -79.04971 22627 ft 440 kts 104°
2026-05-04 20:35 18.76309 -79.01852 22045 ft 437 kts 104°
2026-05-04 20:35 18.75559 -78.98763 21467 ft 433 kts 104°
2026-05-04 20:36 18.74819 -78.95703 20895 ft 429 kts 104°
2026-05-04 20:36 18.74084 -78.92668 20325 ft 425 kts 104°
2026-05-04 20:36 18.73356 -78.89662 19765 ft 421 kts 104°
2026-05-04 20:36 18.72632 -78.86686 19233 ft 418 kts 104°
2026-05-04 20:37 18.71922 -78.83768 18687 ft 414 kts 105°
2026-05-04 20:37 18.71212 -78.80848 18143 ft 410 kts 105°
2026-05-04 20:37 18.70505 -78.77936 17597 ft 407 kts 105°
2026-05-04 20:37 18.69806 -78.75061 17073 ft 403 kts 105°
2026-05-04 20:38 18.69110 -78.72212 16556 ft 399 kts 105°
2026-05-04 20:38 18.68423 -78.69394 16049 ft 395 kts 105°
2026-05-04 20:38 18.67741 -78.66600 15532 ft 392 kts 105°
2026-05-04 20:38 18.67067 -78.63836 15034 ft 388 kts 105°
2026-05-04 20:39 18.66404 -78.61123 14532 ft 385 kts 105°
2026-05-04 20:39 18.65748 -78.58436 14059 ft 368 kts 105°
2026-05-04 20:39 18.65152 -78.55899 13623 ft 348 kts 104°
2026-05-04 20:39 18.64595 -78.53483 13200 ft 331 kts 104°
2026-05-04 20:40 18.64044 -78.51137 12788 ft 342 kts 104°
2026-05-04 20:40 18.63436 -78.48589 12276 ft 367 kts 104°
2026-05-04 20:40 18.62825 -78.46000 11778 ft 362 kts 104°
2026-05-04 20:40 18.62223 -78.43431 11299 ft 360 kts 104°
2026-05-04 20:41 18.61637 -78.40941 10846 ft 339 kts 104°
2026-05-04 20:41 18.61089 -78.38631 10437 ft 321 kts 104°
2026-05-04 20:41 18.60563 -78.36412 10051 ft 301 kts 104°
2026-05-04 20:41 18.60074 -78.34342 9689 ft 286 kts 104°
2026-05-04 20:42 18.59593 -78.32312 9326 ft 287 kts 103°
2026-05-04 20:42 18.59110 -78.30272 8945 ft 287 kts 103°
2026-05-04 20:42 18.58629 -78.28236 8563 ft 285 kts 103°
2026-05-04 20:42 18.58148 -78.26207 8193 ft 285 kts 103°
2026-05-04 20:43 18.57670 -78.24192 7815 ft 283 kts 103°
2026-05-04 20:43 18.57200 -78.22212 7453 ft 281 kts 103°
2026-05-04 20:43 18.56729 -78.20226 7085 ft 280 kts 103°
2026-05-04 20:43 18.56239 -78.18242 6699 ft 278 kts 105°
2026-05-04 20:44 18.55258 -78.16510 6245 ft 278 kts 133°
2026-05-04 20:44 18.53662 -78.15410 5906 ft 278 kts 157°
2026-05-04 20:44 18.51767 -78.15130 5569 ft 277 kts 180°
2026-05-04 20:44 18.49845 -78.15215 5259 ft 276 kts 179°
2026-05-04 20:45 18.47939 -78.15104 4890 ft 273 kts 173°
2026-05-04 20:45 18.46068 -78.14819 4518 ft 271 kts 168°
2026-05-04 20:45 18.44264 -78.14374 4144 ft 267 kts 163°
2026-05-04 20:45 18.42518 -78.13765 3788 ft 262 kts 158°
2026-05-04 20:46 18.41132 -78.12588 3314 ft 257 kts 125°
2026-05-04 20:46 18.40687 -78.10817 3058 ft 254 kts 90°
2026-05-04 20:46 18.41321 -78.09076 2779 ft 262 kts 57°
2026-05-04 20:46 18.42557 -78.07655 2711 ft 265 kts 48°
2026-05-04 20:47 18.43740 -78.06255 2522 ft 241 kts 53°
2026-05-04 20:47 18.44512 -78.04909 2275 ft 190 kts 66°
2026-05-04 20:47 18.44977 -78.03793 2109 ft 150 kts 67°
2026-05-04 20:47 18.45370 -78.02880 2014 ft 128 kts 66°
2026-05-04 20:48 18.45736 -78.02043 1746 ft 124 kts 66°
2026-05-04 20:48 18.46078 -78.01254 1611 ft 112 kts 66°
2026-05-04 20:48 18.46391 -78.00532 1640 ft 110 kts 66°
2026-05-04 20:48 18.46723 -77.99765 1618 ft 121 kts 66°
2026-05-04 20:49 18.47098 -77.98866 1398 ft 150 kts 67°
2026-05-04 20:49 18.47503 -77.97830 1277 ft 157 kts 67°
2026-05-04 20:49 18.47939 -77.96772 1136 ft 159 kts 65°
2026-05-04 20:49 18.48392 -77.95728 878 ft 153 kts 64°
2026-05-04 20:50 18.48858 -77.94712 495 ft 154 kts 63°
2026-05-04 20:50 18.49302 -77.93740 266 ft 136 kts 63°
2026-05-04 20:50 18.49683 -77.92902 70 ft 117 kts 63°
2026-05-04 20:50 18.50007 -77.92176 12 ft 101 kts 64°
2026-05-04 20:51 18.50259 -77.91589 11 ft 78 kts 66°
2026-05-04 20:51 18.50437 -77.91189 9 ft 40 kts 66°
2026-05-04 20:51 18.50524 -77.90961 11 ft 24 kts 81°
2026-05-04 20:51 18.50533 -77.90836 11 ft 6 kts 90°
2026-05-04 20:52 18.50533 -77.90794 10 ft 6 kts 89°
2026-05-04 20:52 18.50532 -77.90752 10 ft 5 kts 92°
2026-05-04 20:52 18.50508 -77.90689 10 ft 18 kts 136°
2026-05-04 20:52 18.50408 -77.90628 10 ft 10 kts 123°
2026-05-04 20:53 18.50444 -77.90561 10 ft 4 kts 56°